Hourly Weather Kozlov

Today, 25 October, Sunday

Time Temperature Precipitation Wind Pressure Humidity
00:00 +15°C° 0 mm 2 mps 746 mmHg 39%
01:00 +15°C° 0 mm 2 mps 746 mmHg 39%
02:00 +15°C° 0 mm 2 mps 746 mmHg 39%
03:00 +14°C° 0 mm 2 mps 746 mmHg 39%
04:00 +14°C° 0 mm 2 mps 746 mmHg 40%
05:00 +14°C° 0 mm 2 mps 746 mmHg 42%
06:00 +13°C° 0 mm 2 mps 746 mmHg 43%
07:00 +14°C° 0 mm 3 mps 746 mmHg 41%
08:00 +16°C° 0 mm 3 mps 747 mmHg 38%
09:00 +18°C° 0 mm 3 mps 747 mmHg 36%
10:00 +19°C° 0 mm 3 mps 747 mmHg 38%
11:00 +20°C° 0 mm 3 mps 746 mmHg 40%
12:00 +22°C° 0 mm 3 mps 746 mmHg 43%
13:00 +22°C° 0 mm 3 mps 746 mmHg 43%
14:00 +22°C° 0 mm 3 mps 746 mmHg 44%
15:00 +24°C° 0 mm 3 mps 746 mmHg 44%
16:00 +21°C° 0 mm 2 mps 746 mmHg 51%
17:00 +20°C° 0 mm 2 mps 746 mmHg 57%
18:00 +19°C° 0 mm 1 mps 746 mmHg 63%
19:00 +19°C° 0 mm 1 mps 747 mmHg 66%
20:00 +18°C° 0 mm 1 mps 747 mmHg 69%
21:00 +15°C° 0 mm 0 mps 747 mmHg 72%
22:00 +16°C° 0 mm 1 mps 747 mmHg 73%
23:00 +16°C° 0 mm 1 mps 747 mmHg 74%

Tomorrow, 26 October, Monday

Time Temperature Precipitation Wind Pressure Humidity
00:00 +15°C° 0 mm 1 mps 747 mmHg 75%
01:00 +15°C° 0 mm 2 mps 747 mmHg 76%
02:00 +15°C° 0 mm 2 mps 748 mmHg 77%
03:00 +14°C° 0 mm 2 mps 748 mmHg 78%
04:00 +14°C° 0 mm 2 mps 748 mmHg 79%
05:00 +13°C° 0 mm 3 mps 748 mmHg 80%
06:00 +12°C° 0 mm 3 mps 748 mmHg 81%
07:00 +14°C° 0 mm 4 mps 748 mmHg 75%
08:00 +15°C° 0 mm 4 mps 748 mmHg 70%
09:00 +16°C° 0 mm 5 mps 748 mmHg 64%
10:00 +17°C° 0 mm 5 mps 748 mmHg 60%
11:00 +20°C° 0 mm 5 mps 748 mmHg 56%
12:00 +21°C° 0 mm 5 mps 748 mmHg 52%
13:00 +21°C° 0 mm 5 mps 748 mmHg 51%
14:00 +21°C° 0 mm 5 mps 747 mmHg 50%
15:00 +22°C° 0 mm 5 mps 747 mmHg 49%
16:00 +20°C° 0 mm 5 mps 747 mmHg 52%
17:00 +19°C° 0 mm 5 mps 747 mmHg 56%
18:00 +18°C° 0 mm 4 mps 747 mmHg 59%
19:00 +16°C° 0 mm 5 mps 748 mmHg 60%
20:00 +16°C° 0 mm 5 mps 748 mmHg 60%
21:00 +15°C° 0 mm 5 mps 748 mmHg 61%
22:00 +15°C° 0 mm 5 mps 748 mmHg 61%
23:00 +14°C° 0 mm 6 mps 748 mmHg 62%

Day after tomorrow, 27 October, Tuesday

Time Temperature Precipitation Wind Pressure Humidity
00:00 +14°C° 0 mm 6 mps 748 mmHg 63%
01:00 +13°C° 0 mm 6 mps 748 mmHg 66%
02:00 +13°C° 0 mm 6 mps 748 mmHg 70%
03:00 +11°C° 0 mm 6 mps 748 mmHg 73%
04:00 +11°C° 0 mm 6 mps 748 mmHg 76%
05:00 +11°C° 0 mm 6 mps 748 mmHg 78%
06:00 +10°C° 0 mm 6 mps 748 mmHg 81%
07:00 +11°C° 0 mm 7 mps 748 mmHg 79%
08:00 +11°C° 0 mm 7 mps 748 mmHg 77%
09:00 +12°C° 0 mm 8 mps 748 mmHg 75%
10:00 +13°C° 0 mm 8 mps 749 mmHg 71%
11:00 +13°C° 0 mm 8 mps 749 mmHg 67%
12:00 +15°C° 0 mm 8 mps 749 mmHg 63%
13:00 +16°C° 0 mm 8 mps 749 mmHg 61%
14:00 +16°C° 0 mm 8 mps 748 mmHg 60%
15:00 +16°C° 0 mm 9 mps 748 mmHg 58%
16:00 +15°C° 0 mm 8 mps 749 mmHg 60%
17:00 +15°C° 0 mm 8 mps 749 mmHg 61%
18:00 +14°C° 0 mm 7 mps 749 mmHg 63%
19:00 +12°C° 0 mm 8 mps 749 mmHg 63%
20:00 +12°C° 0 mm 8 mps 749 mmHg 63%
21:00 +12°C° 0 mm 9 mps 749 mmHg 63%
22:00 +11°C° 0 mm 9 mps 749 mmHg 67%
23:00 +10°C° 0 mm 9 mps 749 mmHg 70%

28 October, Wednesday

Time Temperature Precipitation Wind Pressure Humidity
00:00 +10°C° 0 mm 9 mps 749 mmHg 73%
01:00 +10°C° 0 mm 9 mps 749 mmHg 75%
02:00 +8°C° 0 mm 9 mps 749 mmHg 76%
03:00 +8°C° 0 mm 9 mps 749 mmHg 78%
04:00 +8°C° 0 mm 9 mps 749 mmHg 78%
05:00 +8°C° 0 mm 9 mps 749 mmHg 78%
06:00 +9°C° 0 mm 8 mps 749 mmHg 78%
07:00 +10°C° 0 mm 9 mps 749 mmHg 76%
08:00 +10°C° 0 mm 9 mps 749 mmHg 74%
09:00 +11°C° 0 mm 10 mps 749 mmHg 71%
10:00 +12°C° 0 mm 10 mps 749 mmHg 68%
11:00 +13°C° 0 mm 10 mps 749 mmHg 64%
12:00 +14°C° 0 mm 10 mps 749 mmHg 60%
13:00 +14°C° 0 mm 10 mps 749 mmHg 59%
14:00 +14°C° 0 mm 10 mps 749 mmHg 58%
15:00 +16°C° 0 mm 10 mps 748 mmHg 57%
16:00 +15°C° 0 mm 9 mps 749 mmHg 60%
17:00 +13°C° 0 mm 9 mps 749 mmHg 62%
18:00 +12°C° 0 mm 8 mps 749 mmHg 65%
19:00 +12°C° 0 mm 8 mps 749 mmHg 67%
20:00 +12°C° 0 mm 9 mps 749 mmHg 69%
21:00 +11°C° 0 mm 9 mps 749 mmHg 71%
22:00 +10°C° 0 mm 9 mps 749 mmHg 73%
23:00 +10°C° 0 mm 9 mps 748 mmHg 76%

29 October, Thursday

Time Temperature Precipitation Wind Pressure Humidity
00:00 +8°C° 0 mm 9 mps 748 mmHg 78%
01:00 +9°C° 0 mm 8 mps 748 mmHg 79%
02:00 +9°C° 0 mm 8 mps 748 mmHg 80%
03:00 +9°C° 0 mm 8 mps 748 mmHg 80%
04:00 +9°C° 0 mm 8 mps 748 mmHg 81%
05:00 +9°C° 0 mm 8 mps 748 mmHg 81%
06:00 +9°C° 0 mm 8 mps 748 mmHg 81%
07:00 +10°C° 0 mm 8 mps 748 mmHg 78%
08:00 +11°C° 0 mm 8 mps 747 mmHg 74%
09:00 +12°C° 0 mm 8 mps 747 mmHg 71%
10:00 +13°C° 0 mm 8 mps 747 mmHg 65%
11:00 +16°C° 0 mm 8 mps 747 mmHg 59%
12:00 +17°C° 0 mm 8 mps 747 mmHg 53%
13:00 +18°C° 0 mm 8 mps 747 mmHg 52%
14:00 +18°C° 0 mm 8 mps 747 mmHg 51%
15:00 +20°C° 0 mm 8 mps 746 mmHg 51%
16:00 +18°C° 0 mm 8 mps 746 mmHg 55%
17:00 +17°C° 0 mm 7 mps 747 mmHg 58%
18:00 +15°C° 0 mm 7 mps 747 mmHg 62%
19:00 +15°C° 0 mm 7 mps 747 mmHg 66%
20:00 +14°C° 0 mm 7 mps 747 mmHg 69%
21:00 +12°C° 0 mm 7 mps 747 mmHg 73%
22:00 +13°C° 0 mm 6 mps 747 mmHg 77%
23:00 +11°C° 0 mm 6 mps 747 mmHg 81%

30 October, Friday

Time Temperature Precipitation Wind Pressure Humidity
00:00 +12°C° 0 mm 5 mps 747 mmHg 86%
01:00 +12°C° 0 mm 5 mps 747 mmHg 86%
02:00 +12°C° 0 mm 4 mps 746 mmHg 87%
03:00 +12°C° 0 mm 4 mps 746 mmHg 87%
04:00 +11°C° 0 mm 3 mps 746 mmHg 88%
05:00 +11°C° 0 mm 3 mps 747 mmHg 88%
06:00 +11°C° 0 mm 3 mps 747 mmHg 89%
07:00 +12°C° 0 mm 3 mps 747 mmHg 84%
08:00 +13°C° 0 mm 3 mps 747 mmHg 78%
09:00 +14°C° 0 mm 3 mps 747 mmHg 73%
10:00 +17°C° 0 mm 2 mps 747 mmHg 66%
11:00 +18°C° 0 mm 2 mps 747 mmHg 58%
12:00 +20°C° 0 mm 2 mps 747 mmHg 51%
13:00 +22°C° 0 mm 1 mps 747 mmHg 49%
14:00 +22°C° 0 mm 1 mps 747 mmHg 48%
15:00 +22°C° 0 mm 1 mps 747 mmHg 46%
16:00 +21°C° 0 mm 1 mps 747 mmHg 50%
17:00 +20°C° 0 mm 1 mps 747 mmHg 55%
18:00 +19°C° 0 mm 1 mps 747 mmHg 59%
19:00 +19°C° 0 mm 1 mps 747 mmHg 60%
20:00 +18°C° 0 mm 1 mps 748 mmHg 62%
21:00 +18°C° 0 mm 1 mps 748 mmHg 64%
22:00 +18°C° 0.1 mm 1 mps 748 mmHg 66%
23:00 +16°C° 0.1 mm 1 mps 748 mmHg 69%
Show more